Waarnemingen

Advertentie
Mijn weer
Lorient Lan Bihoue, Frankrijk (7205): temperatuur & dauwpunt: 14.10.2017 16:00:00 - 20.10.2017 16:00:00 (CEST)Lorient Lan Bihoue, Frankrijk (7205): temperatuur 5cm: 14.10.2017 16:00:00 - 20.10.2017 16:00:00 (CEST)Lorient Lan Bihoue, Frankrijk (7205): temperatuur -20cm: 14.10.2017 16:00:00 - 20.10.2017 16:00:00 (CEST)Lorient Lan Bihoue, Frankrijk (7205): windsnelheid & windstoten: 14.10.2017 16:00:00 - 20.10.2017 16:00:00 (CEST)Lorient Lan Bihoue, Frankrijk (7205): windrichting: 14.10.2017 16:00:00 - 20.10.2017 16:00:00 (CEST)Lorient Lan Bihoue, Frankrijk (7205): luchtdruk: 14.10.2017 16:00:00 - 20.10.2017 16:00:00 (CEST)Lorient Lan Bihoue, Frankrijk (7205): zicht: 14.10.2017 16:00:00 - 20.10.2017 16:00:00 (CEST)Lorient Lan Bihoue, Frankrijk (7205): Zonneschijnduur: 14.10.2017 16:00:00 - 20.10.2017 16:00:00 (CEST)Lorient Lan Bihoue, Frankrijk (7205): neerslag: 14.10.2017 16:00:00 - 20.10.2017 16:00:00 (CEST)
Datum & Tijd tt [°C] td [°C] tt 5cm [°C] tt -20cm [°C] ff [km/u] ff [kn] fx [km/u] fx [kn] dd ppp [hPa] vv [km] sd [min] rr [mm]
20.10.2017 16:00:00 16,8 12,1 17,5 15,1 28 15 42 23 Z 1012,9 10 27 0,0
20.10.2017 15:00:00 17,1 10,9 17,6 15,0 29 16 42 23 ZZW 1013,6 10 41 0,0
20.10.2017 14:00:00 16,3 10,4 18,0 15,0 24 13 37 20 ZZW 1014,1 10 52 0,0
20.10.2017 13:00:00 16,6 10,2 15,9 15,0 20 11 33 18 ZW 1014,2 20 36 0,0
20.10.2017 12:00:00 15,2 8,9 14,8 15,0 22 12 34 18 ZW 1014,1 10 38 0,0
20.10.2017 11:00:00 14,8 9,8 13,4 15,1 18 10 29 16 WZW 1014,0 20 16 0,0
20.10.2017 10:00:00 13,7 7,9 11,3 15,2 21 11 30 16 WZW 1013,8 41 18 0,0
20.10.2017 09:00:00 12,0 8,1 10,4 15,3 16 9 29 16 WZW 1013,0 20 0 0,0
20.10.2017 08:00:00 12,8 8,3 10,7 15,3 19 10 30 16 W 1012,3 20 0 0,0
20.10.2017 07:00:00 11,9 8,2 10,5 15,4 12 6 34 18 WNW 1012,1 34 0 0,0
20.10.2017 06:00:00 12,9 9,3 10,8 15,5 16 9 34 18 W 1011,3 20 0 0,0
20.10.2017 05:00:00 12,2 9,0 10,7 15,6 16 9 29 16 W 1010,7 10 0 0,0
20.10.2017 04:00:00 12,6 8,7 10,9 15,7 20 11 39 21 W 1010,5 19 0 0,0
20.10.2017 03:00:00 12,7 8,4 11,1 15,8 22 12 36 19 W 1009,8 10 0 0,0
20.10.2017 02:00:00 12,7 8,8 11,2 15,9 21 12 37 20 W 1009,2 18 0 0,0
20.10.2017 01:00:00 12,5 9,1 11,2 16,0 19 11 36 20 W 1008,4 19 0 0,0
20.10.2017 00:00:00 12,4 10,1 11,4 16,0 16 8 31 17 W 1007,8 17 0 0,0
19.10.2017 23:00:00 12,8 10,2 11,8 16,1 21 11 34 18 W 1006,8 20 0 0,0
19.10.2017 22:00:00 12,9 10,8 12,1 16,2 17 9 34 18 W 1005,7 19 0 0,0
19.10.2017 21:00:00 13,7 11,7 12,9 16,2 23 12 37 20 W 1004,7 19 0 0,0
19.10.2017 20:00:00 14,8 13,2 14,3 16,2 21 11 63 34 W 1003,2 15 0 0,8
19.10.2017 19:00:00 15,4 14,9 - - 39 21 65 35 ZZW 1001,9 3,5 - 4,0
19.10.2017 18:00:00 14,9 14,3 14,6 16,2 38 21 72 39 Z 1002,1 3,1 0 4,2
19.10.2017 17:00:00 15,5 14,0 14,7 16,2 35 19 55 30 Z 1002,9 6 0 1,2
19.10.2017 16:00:00 16,5 13,8 16,8 16,2 31 17 55 30 Z 1004,1 10 0 0,0
19.10.2017 15:00:00 16,7 14,0 17,4 16,1 31 17 48 26 Z 1004,7 10 0 0,0
19.10.2017 14:00:00 16,8 13,9 17,9 16,1 28 15 44 24 ZZW 1005,4 10 11 0,0
19.10.2017 13:00:00 16,8 13,9 16,9 16,1 28 15 42 23 ZZW 1006,3 10 11 0,0
19.10.2017 12:00:00 16,0 14,0 16,6 16,0 19 10 33 18 ZZW 1006,6 38 2 0,0
19.10.2017 11:00:00 16,3 14,1 15,1 16,1 16 9 26 14 ZZW 1006,9 10 10 0,0
19.10.2017 10:00:00 14,7 13,4 14,0 16,1 11 6 16 9 ZW 1006,7 10 0 0,2
19.10.2017 09:00:00 14,0 13,5 13,8 16,1 8 4 11 6 ZO 1006,0 9 0 0,0
19.10.2017 08:00:00 14,0 13,5 13,3 16,2 5 3 9 5 - 1005,8 5 0 0,0
19.10.2017 07:00:00 14,6 14,3 14,0 16,2 3 1 6 4 ZZO 1005,9 1,3 0 0,0
19.10.2017 06:00:00 14,8 14,5 13,8 16,2 4 2 10 5 ZW 1006,6 3,0 0 0,0
19.10.2017 05:00:00 14,5 14,0 13,5 16,2 0 0 8 4 N 1006,7 5 0 0,0
19.10.2017 04:00:00 14,4 13,8 13,9 16,2 0 0 13 7 N 1007,0 2,3 0 0,0
19.10.2017 03:00:00 14,6 14,0 14,2 16,3 3 2 8 4 N 1007,9 3,9 0 0,2
19.10.2017 02:00:00 14,6 13,8 14,0 16,3 5 3 8 4 NNO 1008,2 7 0 0,0
19.10.2017 01:00:00 14,4 13,3 - - 5 3 9 5 ONO 1008,4 10 - 0,0
19.10.2017 00:00:00 14,5 12,7 13,5 16,3 5 3 8 4 NO 1008,7 14 0 0,0
18.10.2017 23:00:00 14,5 11,8 13,1 16,4 6 3 8 5 ONO 1009,2 29 0 0,0
18.10.2017 22:00:00 14,9 11,1 12,8 16,4 3 2 9 5 NO 1009,2 35 0 0,0
18.10.2017 21:00:00 15,5 11,7 14,4 16,3 6 3 10 5 NO 1009,3 41 0 0,0
18.10.2017 20:00:00 15,7 12,6 14,2 16,3 6 4 8 5 ONO 1009,3 48 0 0,0
18.10.2017 19:00:00 17,1 12,4 16,6 16,2 5 3 8 4 ONO 1009,4 56 0 0,0
18.10.2017 18:00:00 18,0 12,2 18,4 16,1 8 4 12 7 NO 1009,3 10 4 0,0
18.10.2017 17:00:00 18,3 11,1 19,2 16,0 8 4 16 8 NNO 1009,3 10 14 0,0
18.10.2017 16:00:00 18,3 11,8 19,5 15,9 5 3 11 6 NNO 1009,6 10 11 0,0
18.10.2017 15:00:00 18,6 10,9 21,2 15,8 5 3 10 5 - 1010,1 10 14 0,0
18.10.2017 14:00:00 18,4 11,7 19,5 15,8 4 2 13 7 - 1010,5 10 23 0,0
18.10.2017 13:00:00 17,1 12,6 18,3 15,7 8 4 11 6 O 1010,8 10 1 0,0
18.10.2017 12:00:00 16,2 13,1 16,0 15,8 5 3 10 5 O 1011,0 10 10 0,0
18.10.2017 11:00:00 14,6 13,3 14,3 15,8 6 3 8 4 ONO 1011,1 20 33 0,0
18.10.2017 10:00:00 13,3 13,1 8,3 15,9 2 1 7 4 NNO 1011,2 10 29 0,2
18.10.2017 09:00:00 10,8 10,5 7,5 16,0 6 3 9 5 OZO 1011,1 0,2 0 0,0
18.10.2017 08:00:00 11,8 11,2 7,6 16,0 5 3 8 4 NO 1010,8 0,2 0 0,0
18.10.2017 07:00:00 13,5 12,7 11,8 16,0 0 0 6 4 N 1011,1 11 0 0,0
18.10.2017 06:00:00 14,2 13,6 13,8 16,0 5 3 11 6 NNW 1011,0 10 0 0,2
18.10.2017 05:00:00 14,5 13,5 14,2 16,0 6 3 14 8 W 1011,6 6 0 0,0
18.10.2017 04:00:00 14,7 13,6 14,0 16,0 10 6 15 8 W 1011,8 19 0 0,0
18.10.2017 03:00:00 15,3 14,2 14,2 16,0 3 2 25 14 NW 1011,5 13 0 0,0
18.10.2017 02:00:00 15,3 14,5 15,0 16,0 3 2 6 4 OZO 1012,0 9 0 0,0
18.10.2017 01:00:00 15,3 14,5 15,0 16,0 3 1 7 4 NO 1012,1 11 0 0,0
18.10.2017 00:00:00 15,3 14,0 14,9 16,0 3 2 6 3 NO 1012,7 13 0 0,0
17.10.2017 23:00:00 15,3 14,0 15,0 16,0 2 1 8 5 NO 1013,0 10 0 0,0
17.10.2017 22:00:00 15,3 13,7 - - 5 3 15 8 O 1012,9 10 - 0,0
17.10.2017 21:00:00 15,4 13,6 14,8 16,0 5 3 11 6 ONO 1013,3 10 0 0,0
17.10.2017 20:00:00 15,6 13,4 15,1 16,0 9 5 17 9 ONO 1013,3 10 0 0,0
17.10.2017 19:00:00 16,1 14,1 15,4 15,9 9 5 21 12 ONO 1013,4 10 0 0,0
17.10.2017 18:00:00 15,9 14,6 15,4 15,9 15 8 19 10 ONO 1013,3 10 0 0,0
17.10.2017 17:00:00 17,0 14,3 16,8 15,9 11 6 14 8 O 1014,6 10 0 0,0
17.10.2017 16:00:00 16,9 13,6 17,0 15,8 11 6 20 11 O 1015,1 10 0 0,0
17.10.2017 15:00:00 17,2 13,7 18,0 15,7 16 9 33 18 O 1015,6 10 1 0,0
17.10.2017 14:00:00 16,6 12,7 16,0 15,7 22 12 33 18 O 1016,3 19 2 0,0
17.10.2017 13:00:00 14,6 11,7 13,0 15,7 21 11 29 16 ONO 1017,4 10 0 0,0
17.10.2017 12:00:00 13,1 11,2 12,5 15,7 13 7 23 13 NO 1018,9 10 0 0,2
17.10.2017 11:00:00 12,4 11,0 11,7 15,7 11 6 26 14 NO 1019,5 10 0 0,4
17.10.2017 10:00:00 12,3 11,0 11,7 15,8 13 7 18 10 NO 1019,9 10 0 0,2
17.10.2017 09:00:00 12,0 11,1 11,4 15,9 8 4 19 10 ONO 1020,2 13 0 0,2
17.10.2017 08:00:00 11,8 10,7 11,1 15,9 11 6 16 9 ONO 1020,2 10 0 0,0
17.10.2017 07:00:00 11,6 10,7 10,8 16,0 8 4 11 6 ONO 1020,7 10 0 0,0
17.10.2017 06:00:00 11,8 11,2 11,2 16,0 9 5 13 7 ONO 1020,5 12 0 0,0
17.10.2017 05:00:00 11,5 11,0 9,3 16,1 7 4 9 5 ONO 1021,5 10 0 0,0
17.10.2017 04:00:00 11,5 10,9 9,2 16,1 5 3 8 4 ONO 1022,3 9 0 0,0
17.10.2017 03:00:00 11,7 11,1 10,6 16,2 6 3 9 5 ONO 1022,4 9 0 0,0
17.10.2017 02:00:00 11,6 10,8 - - 5 3 8 4 ONO 1023,1 10 - -
17.10.2017 01:00:00 11,8 11,2 9,2 16,4 0 0 6 3 N 1023,2 10 0 0,0
17.10.2017 00:00:00 11,2 10,3 8,2 16,5 2 1 3 2 ONO 1023,3 11 0 0,0
16.10.2017 23:00:00 11,9 10,6 9,5 16,5 0 0 12 6 N 1023,3 11 0 0,0
16.10.2017 22:00:00 13,1 10,8 12,0 16,6 9 5 16 8 WZW 1023,1 11 0 0,0
16.10.2017 21:00:00 14,5 12,0 13,5 16,6 12 6 18 10 ZW 1022,7 12 0 0,0
16.10.2017 20:00:00 14,7 12,2 14,0 16,6 12 6 20 11 ZW 1022,4 11 0 0,0
16.10.2017 19:00:00 15,6 12,2 15,4 16,6 15 8 28 15 ZW 1021,9 13 37 0,0
16.10.2017 18:00:00 17,0 11,3 18,0 16,7 22 12 34 19 W 1021,2 10 53 0,0
16.10.2017 17:00:00 17,3 12,2 17,0 16,7 24 13 35 19 WZW 1020,7 10 17 0,0
16.10.2017 16:00:00 16,9 12,8 16,5 16,7 22 12 32 17 WZW 1020,5 13 1 0,0
16.10.2017 15:00:00 16,5 12,3 16,3 16,7 21 11 34 18 WZW 1020,3 10 0 0,0
16.10.2017 14:00:00 16,6 13,5 16,2 16,8 18 10 35 19 ZW 1020,0 10 0 0,0
16.10.2017 13:00:00 16,7 13,4 16,5 16,8 18 10 29 16 WZW 1019,2 10 0 0,0
16.10.2017 12:00:00 17,2 14,3 16,8 16,8 17 9 26 14 WZW 1018,4 9 0 0,0
16.10.2017 11:00:00 18,0 15,4 17,6 16,7 16 9 29 16 ZW 1017,7 9 0 0,0
16.10.2017 10:00:00 18,5 16,1 17,4 16,8 13 7 27 15 Z 1016,9 10 0 0,0
16.10.2017 09:00:00 18,0 16,2 17,1 16,8 18 10 29 15 ZZO 1016,0 10 0 0,0
16.10.2017 08:00:00 17,8 16,0 17,1 16,8 15 8 46 25 ZZO 1015,8 11 0 0,0
16.10.2017 07:00:00 18,2 16,2 17,7 16,8 28 15 48 26 ZO 1013,9 12 0 0,0
16.10.2017 06:00:00 18,4 16,0 17,4 16,8 32 17 49 26 ZO 1013,7 14 0 0,0
16.10.2017 05:00:00 18,1 16,1 17,4 16,8 28 15 43 23 ZO 1014,5 10 0 0,0
16.10.2017 04:00:00 18,6 16,4 17,8 16,8 24 13 38 21 ZO 1015,4 10 0 0,0
16.10.2017 03:00:00 18,8 16,2 17,8 16,9 24 13 43 23 ZO 1016,1 18 0 0,0
16.10.2017 02:00:00 18,5 16,3 17,4 16,9 18 10 33 18 ZO 1016,8 10 0 0,0
16.10.2017 01:00:00 18,1 15,7 17,2 16,9 20 11 33 18 OZO 1017,2 16 0 0,0
16.10.2017 00:00:00 17,9 15,9 16,7 16,9 22 12 32 17 OZO 1017,5 10 0 0,0
15.10.2017 23:00:00 17,5 15,8 - - 15 8 31 17 OZO 1017,6 10 - -
15.10.2017 22:00:00 17,6 16,3 16,9 16,9 19 10 36 20 ZO 1017,9 10 0 0,0
15.10.2017 21:00:00 17,5 16,5 16,9 16,9 16 9 35 19 OZO 1018,5 9 0 0,0
15.10.2017 20:00:00 17,6 16,5 - - 18 10 26 14 ZO 1018,4 9 - -
15.10.2017 19:00:00 17,9 16,6 17,5 16,8 13 7 29 16 ZO 1018,6 10 0 0,0
15.10.2017 18:00:00 18,2 16,9 18,2 16,7 18 10 28 15 ZO 1018,4 10 0 0,0
15.10.2017 17:00:00 18,4 16,7 19,1 16,6 18 10 36 19 ZO 1018,6 10 13 0,0
15.10.2017 16:00:00 18,8 17,1 19,7 16,5 18 10 32 18 ZO 1018,6 10 30 0,0
15.10.2017 15:00:00 19,4 17,2 21,0 16,5 21 11 35 19 ZO 1018,8 13 43 0,0
15.10.2017 14:00:00 18,4 17,1 18,2 16,4 22 12 37 20 ZO 1018,9 10 0 0,0
15.10.2017 13:00:00 17,2 16,4 18,2 16,4 23 12 39 21 ZO 1019,5 2,2 37 0,0
15.10.2017 12:00:00 17,1 15,3 17,8 16,4 20 11 31 17 ZO 1019,7 9 6 0,0
15.10.2017 11:00:00 16,6 14,8 16,9 16,4 18 10 28 15 ZO 1020,0 7 0 0,0
15.10.2017 10:00:00 16,2 14,7 15,1 16,4 11 6 18 10 ZO 1019,8 6 0 0,0
15.10.2017 09:00:00 15,4 13,8 14,4 16,4 9 5 14 7 ZZO 1019,8 7 0 0,0
15.10.2017 08:00:00 15,5 13,5 15,1 16,4 10 5 19 10 Z 1019,8 10 0 0,0
15.10.2017 07:00:00 15,6 13,4 15,3 16,5 9 5 18 10 Z 1019,9 11 0 0,0
15.10.2017 06:00:00 15,7 13,5 15,5 16,4 9 5 23 12 Z 1020,0 10 0 0,0
15.10.2017 05:00:00 15,9 14,1 - - 11 6 18 10 ZZW 1020,2 10 - -
15.10.2017 04:00:00 16,3 14,3 16,2 16,5 11 6 22 12 ZW 1020,4 10 0 0,0
15.10.2017 03:00:00 16,4 15,1 15,9 16,5 9 5 22 12 ZZW 1020,8 8 0 0,0
15.10.2017 02:00:00 16,2 15,2 16,0 16,5 13 7 28 15 ZZW 1021,1 5 0 0,0
15.10.2017 01:00:00 16,9 15,6 16,5 16,5 13 7 23 12 Z 1021,2 8 0 0,0
15.10.2017 00:00:00 16,6 15,8 - - 9 5 18 10 ZZO 1021,2 6 - 0,0
14.10.2017 23:00:00 16,8 15,8 16,3 16,5 13 7 25 13 Z 1021,4 7 0 0,0
14.10.2017 22:00:00 16,4 15,6 15,9 16,6 14 8 28 15 ZZO 1021,3 6 0 0,0
14.10.2017 21:00:00 16,4 15,6 15,6 16,5 16 9 27 14 ZZO 1021,7 6 0 0,0
14.10.2017 20:00:00 17,7 13,8 16,0 16,4 15 8 21 12 ZZO 1021,8 10 0 0,0
14.10.2017 19:00:00 20,1 13,3 19,2 16,4 6 4 15 8 ZO 1021,7 38 60 0,0
14.10.2017 18:00:00 21,4 13,3 23,4 16,2 9 5 24 13 ZO 1021,9 10 60 0,0
14.10.2017 17:00:00 22,1 13,2 25,0 16,0 15 8 25 13 ZO 1022,3 58 60 0,0
14.10.2017 16:00:00 22,2 14,3 25,5 15,9 15 8 25 13 ZO 1022,9 10 60 0,0

tt = temperatuur
td = dauwpunt
tt 5cm = temperatuur 5cm
tt -20cm = temperatuur -20cm
ff = windsnelheid
fx = windstoten
dd = windrichting
ppp = luchtdruk
vv = zicht
sd = Zonneschijnduur
rr = neerslag

Weerstations in de omgeving